Weather in Sinquerim

India     15°32′45″N   73°47′08″E
temp.,
°C
wind,
m/s
gust,
m/s
humid.,
%
clouds,
%
prec.,
mm/h
press.,
hPa
HPBL,
m
28 november, sun
sun2823:30+25e346611 0.0 1012138
02:30+24ene4461100 0.0 1010127
05:30+23ene336297 0.0 1011141
08:30+24ene346298 0.0 1013175
11:30+28ene235181 0.0 1012500
14:30+29wsw2351100 0.0 1009587
17:30+28nw446167 0.0 1009164
20:30+27n2367100 0.0 101199
29 november, mon
mon2923:30+26ese4672100 0.0 1011285
02:30+26e4675100 0.0 1010309
05:30+25e467799 0.0 1010308
08:30+26e4774100 0.0 1012444
11:30+29e686688 0.0 10121059
14:30+30e4563100 0.0 1009453
17:30+29e346899 0.0 100953
20:30+27e4673100 0.1 1011254
30 november, tue
tue3023:30+26e5875100 0.1 1011303
02:30+26e5975100 0.0 1009447
05:30+26e4875100 0.0 1010430
08:30+26e597499 0.0 1011590
11:30+28ese7967100 0.0 10111069
14:30+30sse3562100 0.0 1008570
17:30+28se3770100 0.1 1008304
20:30+27e3370100 0.1 1010177
1 december, wed
wed123:30+26ese347349 0.1 1010176
02:30+25e457377 0.0 1009189
05:30+25e587696 0.0 1009321
08:30+26ese6107691 0.0 1011573
11:30+27ese587395 0.0 1010670
14:30+28ssw4568100 0.0 1007499
17:30+27s7976100 1.1 1007559
20:30+27sse71082100 1.4 1010601
2 december, thu
thu223:30+26sse688369 5.6 1010537
02:30+25se578780 5.5 1008326
05:30+25ese4683100 6.9 1009296
08:30+26se4578100 0.0 1011327
11:30+28sse7874100 0.1 1011919
14:30+28s787613 0.1 1008768
17:30+27s567822 0.4 1008705
20:30+27sse45827 0.4 1011532